DAL2189 KATL-KJAX

Flight info

Callsign DAL2189
Flight time 0h 44m
Altitude 27000
Route VRSTY3 NOKIE DUCHY OHDEA2
Aircraft A321/M-SDE3FGHIRWY/LB1

Departure

Time 2026-05-07 21:54
Airport Hartsfield Jackson Atlanta International Airport (KATL)

Arrival

Time 2026-05-07 22:38
Airport Jacksonville International Airport (KJAX)
Time Latitude Longitude Altitude Speed Heading
2026-05-07 21:11 33.64001 -84.43642 1036 ft 0 kts 90°
2026-05-07 21:43 33.64001 -84.43647 1035 ft 3 kts 90°
2026-05-07 21:43 33.64001 -84.43675 1035 ft 3 kts 96°
2026-05-07 21:43 33.64007 -84.43701 1035 ft 3 kts 122°
2026-05-07 21:43 33.64022 -84.43719 1035 ft 3 kts 162°
2026-05-07 21:44 33.64036 -84.43722 1035 ft 1 kts 180°
2026-05-07 21:44 33.64038 -84.43722 1035 ft 0 kts 180°
2026-05-07 21:46 33.64037 -84.43722 1035 ft 1 kts 180°
2026-05-07 21:46 33.64007 -84.43722 1035 ft 7 kts 180°
2026-05-07 21:47 33.63942 -84.43722 1035 ft 12 kts 180°
2026-05-07 21:47 33.63846 -84.43723 1035 ft 16 kts 180°
2026-05-07 21:47 33.63737 -84.43722 1035 ft 13 kts 179°
2026-05-07 21:47 33.63676 -84.43702 1036 ft 9 kts 129°
2026-05-07 21:48 33.63665 -84.43610 1035 ft 14 kts 91°
2026-05-07 21:48 33.63665 -84.43467 1035 ft 19 kts 90°
2026-05-07 21:48 33.63665 -84.43311 1035 ft 18 kts 90°
2026-05-07 21:48 33.63665 -84.43166 1035 ft 17 kts 90°
2026-05-07 21:49 33.63665 -84.43022 1035 ft 17 kts 90°
2026-05-07 21:49 33.63665 -84.42875 1035 ft 18 kts 90°
2026-05-07 21:49 33.63660 -84.42726 1036 ft 18 kts 95°
2026-05-07 21:49 33.63656 -84.42579 1036 ft 18 kts 91°
2026-05-07 21:50 33.63656 -84.42428 1036 ft 18 kts 89°
2026-05-07 21:50 33.63656 -84.42276 1036 ft 18 kts 90°
2026-05-07 21:50 33.63656 -84.42123 1036 ft 18 kts 90°
2026-05-07 21:50 33.63656 -84.41969 1035 ft 19 kts 90°
2026-05-07 21:51 33.63656 -84.41808 1035 ft 19 kts 90°
2026-05-07 21:51 33.63656 -84.41645 1035 ft 20 kts 90°
2026-05-07 21:51 33.63656 -84.41478 1035 ft 20 kts 89°
2026-05-07 21:51 33.63656 -84.41307 1035 ft 21 kts 90°
2026-05-07 21:52 33.63656 -84.41134 1035 ft 21 kts 89°
2026-05-07 21:52 33.63657 -84.40981 1035 ft 10 kts 90°
2026-05-07 21:52 33.63630 -84.40911 1035 ft 10 kts 154°
2026-05-07 21:52 33.63564 -84.40909 1036 ft 9 kts 180°
2026-05-07 21:53 33.63501 -84.40910 1036 ft 9 kts 187°
2026-05-07 21:53 33.63472 -84.40961 1036 ft 9 kts 268°
2026-05-07 21:53 33.63472 -84.41067 1035 ft 28 kts 270°
2026-05-07 21:53 33.63473 -84.41585 1034 ft 93 kts 270°
2026-05-07 21:54 33.63473 -84.42576 1036 ft 141 kts 271°
2026-05-07 21:54 33.63472 -84.43891 1182 ft 164 kts 270°
2026-05-07 21:54 33.63481 -84.45230 1863 ft 156 kts 270°
2026-05-07 21:54 33.63479 -84.46523 2466 ft 155 kts 272°
2026-05-07 21:55 33.63475 -84.47850 2879 ft 167 kts 271°
2026-05-07 21:55 33.63463 -84.49327 3081 ft 188 kts 268°
2026-05-07 21:55 33.63022 -84.50895 3207 ft 215 kts 238°
2026-05-07 21:55 33.61772 -84.52063 3367 ft 248 kts 204°
2026-05-07 21:56 33.60018 -84.52636 3731 ft 270 kts 195°
2026-05-07 21:56 33.58155 -84.52906 4620 ft 274 kts 180°
2026-05-07 21:56 33.56289 -84.52327 5404 ft 286 kts 155°
2026-05-07 21:56 33.54700 -84.50828 6148 ft 296 kts 140°
2026-05-07 21:57 33.53202 -84.49097 6870 ft 301 kts 140°
2026-05-07 21:57 33.51688 -84.47326 7502 ft 307 kts 140°
2026-05-07 21:57 33.50148 -84.45523 8215 ft 311 kts 141°
2026-05-07 21:57 33.48583 -84.43695 8927 ft 316 kts 141°
2026-05-07 21:58 33.47016 -84.41869 9591 ft 321 kts 141°
2026-05-07 21:58 33.45402 -84.39998 10192 ft 328 kts 142°
2026-05-07 21:58 33.43702 -84.38047 10401 ft 348 kts 142°
2026-05-07 21:58 33.41905 -84.35986 10717 ft 364 kts 142°
2026-05-07 21:59 33.40060 -84.33859 11238 ft 371 kts 142°
2026-05-07 21:59 33.38187 -84.31696 11768 ft 378 kts 142°
2026-05-07 21:59 33.36276 -84.29491 12314 ft 385 kts 143°
2026-05-07 21:59 33.34332 -84.27244 12893 ft 391 kts 143°
2026-05-07 22:00 33.32363 -84.24973 13453 ft 397 kts 144°
2026-05-07 22:00 33.30353 -84.22653 13949 ft 404 kts 144°
2026-05-07 22:00 33.28321 -84.20309 14491 ft 407 kts 144°
2026-05-07 22:00 33.27703 -84.19592 14665 ft 409 kts 144°
2026-05-07 22:01 33.25662 -84.17219 15249 ft 410 kts 144°
2026-05-07 22:01 33.23605 -84.14849 15836 ft 412 kts 145°
2026-05-07 22:01 33.21532 -84.12474 16401 ft 415 kts 146°
2026-05-07 22:01 33.19438 -84.10081 16984 ft 417 kts 146°
2026-05-07 22:02 33.17338 -84.07687 17573 ft 419 kts 146°
2026-05-07 22:02 33.15225 -84.05279 18146 ft 421 kts 147°
2026-05-07 22:02 33.13126 -84.02882 18630 ft 424 kts 146°
2026-05-07 22:02 33.10989 -84.00439 19099 ft 427 kts 146°
2026-05-07 22:03 33.08828 -83.98006 19549 ft 426 kts 149°
2026-05-07 22:03 33.06497 -83.95865 20004 ft 420 kts 156°
2026-05-07 22:03 33.04090 -83.93849 20466 ft 423 kts 156°
2026-05-07 22:03 33.01671 -83.91828 20918 ft 426 kts 156°
2026-05-07 22:04 32.99236 -83.89796 21303 ft 429 kts 155°
2026-05-07 22:04 32.96776 -83.87752 21720 ft 433 kts 155°
2026-05-07 22:04 32.94298 -83.85689 22142 ft 436 kts 155°
2026-05-07 22:04 32.91803 -83.83610 22564 ft 439 kts 155°
2026-05-07 22:05 32.89320 -83.81537 22979 ft 442 kts 155°
2026-05-07 22:05 32.86791 -83.79423 23390 ft 445 kts 155°
2026-05-07 22:05 32.84246 -83.77300 23745 ft 448 kts 155°
2026-05-07 22:05 32.81684 -83.75163 24086 ft 450 kts 155°
2026-05-07 22:06 32.79111 -83.73020 24447 ft 452 kts 155°
2026-05-07 22:06 32.76529 -83.70871 24777 ft 454 kts 155°
2026-05-07 22:06 32.73930 -83.68711 25102 ft 457 kts 155°
2026-05-07 22:06 32.71320 -83.66543 25418 ft 458 kts 155°
2026-05-07 22:07 32.68694 -83.64363 25768 ft 460 kts 155°
2026-05-07 22:07 32.68655 -83.64331 25773 ft 460 kts 155°
2026-05-07 22:07 32.67417 -83.63321 25934 ft 460 kts 156°
2026-05-07 22:07 32.64750 -83.61203 26266 ft 461 kts 157°
2026-05-07 22:08 32.61182 -83.58456 26719 ft 462 kts 158°
2026-05-07 22:08 32.59347 -83.57059 26869 ft 464 kts 158°
2026-05-07 22:08 32.56616 -83.54981 26942 ft 470 kts 158°
2026-05-07 22:08 32.53869 -83.52890 26943 ft 480 kts 157°
2026-05-07 22:09 32.51033 -83.50723 26942 ft 490 kts 157°
2026-05-07 22:09 32.48145 -83.48496 26941 ft 500 kts 156°
2026-05-07 22:09 32.45207 -83.46212 26942 ft 509 kts 156°
2026-05-07 22:09 32.42216 -83.43888 26940 ft 518 kts 156°
2026-05-07 22:10 32.39183 -83.41531 26939 ft 524 kts 156°
2026-05-07 22:10 32.36125 -83.39154 26940 ft 527 kts 156°
2026-05-07 22:10 32.33054 -83.36769 26961 ft 528 kts 156°
2026-05-07 22:10 32.29980 -83.34389 26964 ft 528 kts 156°
2026-05-07 22:11 32.26907 -83.32016 26968 ft 528 kts 156°
2026-05-07 22:11 32.23822 -83.29639 26972 ft 528 kts 156°
2026-05-07 22:11 32.20750 -83.27275 26975 ft 528 kts 156°
2026-05-07 22:11 32.17668 -83.24909 26977 ft 528 kts 156°
2026-05-07 22:12 32.14587 -83.22546 26954 ft 527 kts 155°
2026-05-07 22:12 32.11513 -83.20185 26978 ft 526 kts 155°
2026-05-07 22:12 32.08447 -83.17835 26990 ft 526 kts 155°
2026-05-07 22:12 32.05377 -83.15489 26994 ft 525 kts 155°
2026-05-07 22:13 32.02308 -83.13148 26990 ft 525 kts 155°
2026-05-07 22:13 31.99244 -83.10812 26979 ft 524 kts 155°
2026-05-07 22:13 31.96190 -83.08480 26959 ft 521 kts 155°
2026-05-07 22:13 31.93194 -83.06182 26721 ft 507 kts 155°
2026-05-07 22:14 31.90280 -83.03937 26478 ft 493 kts 156°
2026-05-07 22:14 31.87442 -83.01748 26211 ft 480 kts 155°
2026-05-07 22:14 31.84672 -82.99622 25971 ft 470 kts 155°
2026-05-07 22:14 31.81969 -82.97568 25743 ft 465 kts 156°
2026-05-07 22:15 31.79255 -82.95522 25181 ft 462 kts 156°
2026-05-07 22:15 31.76545 -82.93486 24580 ft 462 kts 156°
2026-05-07 22:15 31.73857 -82.91399 23984 ft 465 kts 151°
2026-05-07 22:15 31.71364 -82.88943 23542 ft 465 kts 146°
2026-05-07 22:16 31.68946 -82.86460 23107 ft 459 kts 146°
2026-05-07 22:16 31.66545 -82.84005 22721 ft 456 kts 147°
2026-05-07 22:16 31.64155 -82.81570 22325 ft 452 kts 147°
2026-05-07 22:16 31.61779 -82.79163 21959 ft 449 kts 147°
2026-05-07 22:17 31.59423 -82.76778 21552 ft 446 kts 147°
2026-05-07 22:17 31.57080 -82.74408 21183 ft 444 kts 146°
2026-05-07 22:17 31.54747 -82.72051 20797 ft 440 kts 146°
2026-05-07 22:17 31.52432 -82.69713 20413 ft 437 kts 146°
2026-05-07 22:18 31.50141 -82.67392 20014 ft 433 kts 146°
2026-05-07 22:18 31.45620 -82.62810 19269 ft 426 kts 146°
2026-05-07 22:18 31.43349 -82.60626 18900 ft 420 kts 149°
2026-05-07 22:19 31.41063 -82.58603 18542 ft 415 kts 151°
2026-05-07 22:19 31.38729 -82.56651 18173 ft 410 kts 152°
2026-05-07 22:19 31.36391 -82.54742 17818 ft 408 kts 152°
2026-05-07 22:19 31.34062 -82.52840 17500 ft 407 kts 152°
2026-05-07 22:20 31.31758 -82.50939 17146 ft 405 kts 152°
2026-05-07 22:20 31.29463 -82.49021 16778 ft 403 kts 151°
2026-05-07 22:20 31.27194 -82.47104 16441 ft 401 kts 150°
2026-05-07 22:20 31.24947 -82.45194 16091 ft 399 kts 150°
2026-05-07 22:21 31.22708 -82.43286 15749 ft 397 kts 150°
2026-05-07 22:21 31.20478 -82.41390 15400 ft 395 kts 150°
2026-05-07 22:21 31.18258 -82.39509 15056 ft 393 kts 150°
2026-05-07 22:21 31.16044 -82.37637 14712 ft 390 kts 150°
2026-05-07 22:22 31.13852 -82.35788 14373 ft 388 kts 150°
2026-05-07 22:22 31.11695 -82.33968 14045 ft 386 kts 150°
2026-05-07 22:22 31.09528 -82.32137 13701 ft 383 kts 149°
2026-05-07 22:22 31.07374 -82.30319 13351 ft 382 kts 149°
2026-05-07 22:23 31.05222 -82.28507 13030 ft 380 kts 150°
2026-05-07 22:23 31.03044 -82.26794 12624 ft 376 kts 152°
2026-05-07 22:23 31.00852 -82.25136 12322 ft 374 kts 152°
2026-05-07 22:23 30.98695 -82.23459 12096 ft 372 kts 150°
2026-05-07 22:24 30.96578 -82.21734 12060 ft 371 kts 149°
2026-05-07 22:24 30.94478 -82.19958 11902 ft 372 kts 148°
2026-05-07 22:24 30.92404 -82.18161 11661 ft 370 kts 148°
2026-05-07 22:24 30.90349 -82.16363 11416 ft 369 kts 148°
2026-05-07 22:25 30.88298 -82.14564 11174 ft 367 kts 147°
2026-05-07 22:25 30.86264 -82.12781 10941 ft 366 kts 148°
2026-05-07 22:25 30.84355 -82.10828 10705 ft 367 kts 133°
2026-05-07 22:25 30.83082 -82.08279 10483 ft 360 kts 115°
2026-05-07 22:26 30.82185 -82.05657 10236 ft 337 kts 113°
2026-05-07 22:26 30.81375 -82.03183 10021 ft 329 kts 113°
2026-05-07 22:26 30.80570 -82.00703 9779 ft 325 kts 113°
2026-05-07 22:26 30.79771 -81.98241 9530 ft 324 kts 113°
2026-05-07 22:27 30.79017 -81.95924 9314 ft 323 kts 113°
2026-05-07 22:27 30.78891 -81.95537 9236 ft 322 kts 113°
2026-05-07 22:27 30.78098 -81.93101 8990 ft 321 kts 113°
2026-05-07 22:27 30.77310 -81.90674 8753 ft 320 kts 113°
2026-05-07 22:28 30.76521 -81.88251 8521 ft 320 kts 113°
2026-05-07 22:28 30.75731 -81.85841 8267 ft 319 kts 113°
2026-05-07 22:28 30.74943 -81.83433 8027 ft 317 kts 113°
2026-05-07 22:28 30.74158 -81.81045 7794 ft 316 kts 113°
2026-05-07 22:29 30.73373 -81.78662 7478 ft 315 kts 113°
2026-05-07 22:29 30.72594 -81.76286 7176 ft 313 kts 113°
2026-05-07 22:29 30.71827 -81.73930 6866 ft 310 kts 113°
2026-05-07 22:29 30.71063 -81.71589 6568 ft 309 kts 113°
2026-05-07 22:30 30.70304 -81.69256 6278 ft 309 kts 113°
2026-05-07 22:30 30.69553 -81.66948 5928 ft 308 kts 112°
2026-05-07 22:30 30.68786 -81.64612 5533 ft 307 kts 113°
2026-05-07 22:30 30.68037 -81.62305 5174 ft 299 kts 112°
2026-05-07 22:31 30.67302 -81.60045 4848 ft 305 kts 113°
2026-05-07 22:31 30.66567 -81.57758 4491 ft 298 kts 113°
2026-05-07 22:31 30.65870 -81.55551 4220 ft 286 kts 113°
2026-05-07 22:31 30.65199 -81.53415 3891 ft 276 kts 113°
2026-05-07 22:32 30.64554 -81.51364 3561 ft 262 kts 113°
2026-05-07 22:32 30.63947 -81.49419 3275 ft 255 kts 112°
2026-05-07 22:32 30.63344 -81.47494 2901 ft 252 kts 112°
2026-05-07 22:32 30.62588 -81.45684 2590 ft 245 kts 130°
2026-05-07 22:33 30.61350 -81.44387 2401 ft 237 kts 154°
2026-05-07 22:33 30.59825 -81.43812 2198 ft 228 kts 180°
2026-05-07 22:33 30.58302 -81.44042 2067 ft 214 kts 204°
2026-05-07 22:33 30.57241 -81.45092 2029 ft 196 kts 242°
2026-05-07 22:34 30.56773 -81.46468 2046 ft 178 kts 252°
2026-05-07 22:34 30.56372 -81.47818 2037 ft 177 kts 250°
2026-05-07 22:34 30.55970 -81.49160 2027 ft 176 kts 249°
2026-05-07 22:34 30.55566 -81.50492 2040 ft 173 kts 251°
2026-05-07 22:35 30.55164 -81.51813 2044 ft 171 kts 251°
2026-05-07 22:35 30.54764 -81.53122 2049 ft 173 kts 250°
2026-05-07 22:35 30.54365 -81.54436 2041 ft 172 kts 250°
2026-05-07 22:35 30.53963 -81.55765 1929 ft 175 kts 249°
2026-05-07 22:36 30.53566 -81.57067 1723 ft 162 kts 250°
2026-05-07 22:36 30.53208 -81.58236 1546 ft 149 kts 250°
2026-05-07 22:36 30.52867 -81.59359 1352 ft 150 kts 250°
2026-05-07 22:36 30.52522 -81.60490 1166 ft 150 kts 250°
2026-05-07 22:37 30.52176 -81.61626 974 ft 145 kts 249°
2026-05-07 22:37 30.51828 -81.62764 796 ft 155 kts 248°
2026-05-07 22:37 30.51477 -81.63916 608 ft 153 kts 249°
2026-05-07 22:37 30.51139 -81.65082 405 ft 145 kts 250°
2026-05-07 22:38 30.50784 -81.66204 216 ft 147 kts 249°
2026-05-07 22:38 30.50450 -81.67306 48 ft 147 kts 245°
2026-05-07 22:38 30.50138 -81.68301 39 ft 107 kts 251°
2026-05-07 22:38 30.49953 -81.68907 35 ft 47 kts 250°
2026-05-07 22:39 30.49887 -81.69113 38 ft 20 kts 245°
2026-05-07 22:39 30.49786 -81.69199 37 ft 18 kts 190°
2026-05-07 22:39 30.49665 -81.69163 36 ft 18 kts 150°
2026-05-07 22:39 30.49557 -81.69090 35 ft 18 kts 149°
2026-05-07 22:40 30.49453 -81.69018 34 ft 17 kts 149°
2026-05-07 22:40 30.49382 -81.68960 34 ft 10 kts 122°
2026-05-07 22:40 30.49379 -81.68889 35 ft 8 kts 86°
2026-05-07 22:40 30.49383 -81.68824 35 ft 8 kts 85°
2026-05-07 22:41 30.49390 -81.68748 35 ft 10 kts 91°
2026-05-07 22:41 30.49348 -81.68697 35 ft 6 kts 139°
2026-05-07 22:41 30.49334 -81.68655 35 ft 2 kts 106°
2026-05-07 22:41 30.49329 -81.68633 35 ft 3 kts 104°
2026-05-07 22:42 30.49327 -81.68623 35 ft 0 kts 104°